Le nostre stazioni meteo in Italia

Pubblicità
Il mio iltempo24.it
Drumnadrochit, Gran Bretagna (99132): Temperatura & dewpoint: 15.09.2018 04:00:00 - 21.09.2018 04:00:00 (BST)Drumnadrochit, Gran Bretagna (99132): precipitazioni: 15.09.2018 04:00:00 - 21.09.2018 04:00:00 (BST)
Data & Tempo tt [°C] td [°C] rr [mm]
21.09.2018 04:00:00 - - -
21.09.2018 03:00:00 5,6 5,3 0,0
21.09.2018 02:00:00 6,1 5,7 0,0
21.09.2018 01:00:00 5,5 5,2 0,0
21.09.2018 00:00:00 6,2 5,9 0,0
20.09.2018 23:00:00 6,3 5,6 0,0
20.09.2018 22:00:00 7,3 5,7 0,0
20.09.2018 21:00:00 8,1 5,9 0,0
20.09.2018 20:00:00 8,6 5,6 0,0
20.09.2018 19:00:00 9,8 6,5 0,0
20.09.2018 18:00:00 10,8 6,2 0,0
20.09.2018 17:00:00 12,0 5,6 0,0
20.09.2018 16:00:00 12,8 5,1 0,0
20.09.2018 15:00:00 12,8 4,4 0,0
20.09.2018 14:00:00 13,9 6,2 0,0
20.09.2018 13:00:00 12,4 5,9 0,0
20.09.2018 12:00:00 12,8 5,9 0,0
20.09.2018 11:00:00 11,8 5,9 0,0
20.09.2018 10:00:00 9,1 6,1 0,6
20.09.2018 09:00:00 8,7 5,8 0,6
20.09.2018 08:00:00 8,2 5,4 0,4
20.09.2018 07:00:00 8,7 4,9 0,0
20.09.2018 06:00:00 8,9 5,1 0,0
20.09.2018 05:00:00 8,5 5,9 0,4
20.09.2018 04:00:00 8,3 6,0 0,4
20.09.2018 03:00:00 8,4 6,4 0,2
20.09.2018 02:00:00 8,2 6,2 0,6
20.09.2018 01:00:00 8,1 6,3 0,8
20.09.2018 00:00:00 7,9 5,4 0,4
19.09.2018 23:00:00 8,2 5,7 1,6
19.09.2018 22:00:00 8,6 6,0 0,0
19.09.2018 21:00:00 7,8 5,3 1,2
19.09.2018 20:00:00 8,0 5,9 2,4
19.09.2018 19:00:00 8,6 6,0 1,0
19.09.2018 18:00:00 9,1 6,8 2,0
19.09.2018 17:00:00 10,3 6,7 0,6
19.09.2018 16:00:00 10,8 7,2 0,0
19.09.2018 15:00:00 12,5 7,8 1,2
19.09.2018 14:00:00 12,7 9,6 0,2
19.09.2018 13:00:00 12,5 9,7 1,2
19.09.2018 12:00:00 10,5 9,6 3,6
19.09.2018 11:00:00 9,3 8,1 1,6
19.09.2018 10:00:00 9,5 6,7 0,8
19.09.2018 09:00:00 10,0 5,9 0,0
19.09.2018 08:00:00 10,5 6,6 0,0
19.09.2018 07:00:00 10,0 7,4 0,2
19.09.2018 06:00:00 9,9 8,1 0,2
19.09.2018 05:00:00 9,6 7,9 0,0
19.09.2018 04:00:00 8,9 7,4 0,2
19.09.2018 03:00:00 6,6 6,0 0,2
19.09.2018 02:00:00 7,8 6,1 4,8
19.09.2018 01:00:00 9,1 8,6 0,2
19.09.2018 00:00:00 10,7 9,1 0,0
18.09.2018 23:00:00 8,4 7,4 0,2
18.09.2018 22:00:00 11,5 9,9 1,0
18.09.2018 21:00:00 12,9 11,0 0,6
18.09.2018 20:00:00 12,0 10,1 0,0
18.09.2018 19:00:00 13,5 10,5 0,0
18.09.2018 18:00:00 14,4 10,9 0,0
18.09.2018 17:00:00 15,1 10,7 0,0
18.09.2018 16:00:00 15,8 11,9 0,0
18.09.2018 15:00:00 13,9 13,4 0,0
18.09.2018 14:00:00 13,6 13,1 1,0
18.09.2018 13:00:00 13,6 13,1 0,0
18.09.2018 12:00:00 13,6 13,1 0,4
18.09.2018 11:00:00 13,5 13,0 1,0
18.09.2018 10:00:00 13,8 13,5 0,4
18.09.2018 09:00:00 13,6 13,4 0,6
18.09.2018 08:00:00 13,8 13,1 0,6
18.09.2018 07:00:00 14,3 14,1 1,8
18.09.2018 06:00:00 14,6 14,0 0,0
18.09.2018 05:00:00 15,7 14,1 0,2
18.09.2018 04:00:00 15,7 14,4 0,2
18.09.2018 03:00:00 15,8 14,5 1,2
18.09.2018 02:00:00 16,0 14,6 1,6
18.09.2018 01:00:00 16,0 14,4 2,6
18.09.2018 00:00:00 15,9 14,4 3,2
17.09.2018 23:00:00 16,0 14,5 3,2
17.09.2018 22:00:00 15,9 14,4 4,8
17.09.2018 21:00:00 15,8 14,0 1,8
17.09.2018 20:00:00 13,7 13,1 0,2
17.09.2018 19:00:00 13,5 12,5 0,8
17.09.2018 18:00:00 13,9 11,7 0,6
17.09.2018 17:00:00 13,9 11,6 0,0
17.09.2018 16:00:00 13,6 12,0 0,0
17.09.2018 15:00:00 13,4 12,2 0,2
17.09.2018 14:00:00 13,4 11,1 1,0
17.09.2018 13:00:00 14,8 11,0 0,0
17.09.2018 12:00:00 14,3 11,4 0,0
17.09.2018 11:00:00 12,9 11,4 0,0
17.09.2018 10:00:00 13,0 10,9 0,0
17.09.2018 09:00:00 12,5 11,3 0,0
17.09.2018 08:00:00 11,0 10,6 0,0
17.09.2018 07:00:00 10,2 9,9 0,4
17.09.2018 06:00:00 10,6 9,8 0,0
17.09.2018 05:00:00 11,0 9,3 0,0
17.09.2018 04:00:00 9,3 8,1 0,0
17.09.2018 03:00:00 9,7 6,7 0,0
17.09.2018 02:00:00 10,9 7,9 0,0
17.09.2018 01:00:00 10,4 8,4 0,0
17.09.2018 00:00:00 10,2 8,3 0,0
16.09.2018 23:00:00 9,5 7,3 0,0
16.09.2018 22:00:00 9,4 6,6 0,0
16.09.2018 21:00:00 10,1 6,1 0,0
16.09.2018 20:00:00 9,7 5,7 0,0
16.09.2018 19:00:00 11,1 5,2 0,0
16.09.2018 18:00:00 11,4 6,9 0,0
16.09.2018 17:00:00 13,2 4,8 0,0
16.09.2018 16:00:00 14,1 3,6 0,0
16.09.2018 15:00:00 12,9 7,1 0,0
16.09.2018 14:00:00 13,6 6,6 0,0
16.09.2018 13:00:00 13,5 7,5 0,0
16.09.2018 12:00:00 14,0 7,4 0,0
16.09.2018 11:00:00 14,2 10,4 0,0
16.09.2018 10:00:00 15,4 10,6 0,0
16.09.2018 09:00:00 14,5 10,7 0,0
16.09.2018 08:00:00 13,8 10,6 0,0
16.09.2018 07:00:00 14,3 12,4 0,2
16.09.2018 06:00:00 14,6 13,2 0,2
16.09.2018 05:00:00 12,0 12,0 0,2
16.09.2018 04:00:00 11,5 11,4 1,0
16.09.2018 03:00:00 10,1 10,0 3,4
16.09.2018 02:00:00 9,6 9,6 1,2
16.09.2018 01:00:00 9,4 9,4 1,4
16.09.2018 00:00:00 9,3 9,2 0,4
15.09.2018 23:00:00 9,3 9,2 0,4
15.09.2018 22:00:00 9,3 9,0 0,0
15.09.2018 21:00:00 9,7 8,7 0,0
15.09.2018 20:00:00 10,3 8,7 0,0
15.09.2018 19:00:00 11,6 7,8 0,0
15.09.2018 18:00:00 12,0 7,7 0,0
15.09.2018 17:00:00 12,4 7,4 0,0
15.09.2018 16:00:00 14,2 7,7 0,0
15.09.2018 15:00:00 13,1 7,2 0,0
15.09.2018 14:00:00 12,8 7,1 0,0
15.09.2018 13:00:00 11,8 7,5 0,0
15.09.2018 12:00:00 12,2 6,9 0,0
15.09.2018 11:00:00 11,8 7,1 0,0
15.09.2018 10:00:00 8,1 7,8 0,0
15.09.2018 09:00:00 5,9 5,9 0,0
15.09.2018 08:00:00 3,7 3,7 0,0
15.09.2018 07:00:00 2,7 2,6 0,0
15.09.2018 06:00:00 3,9 3,9 0,0
15.09.2018 05:00:00 2,8 2,8 0,0
15.09.2018 04:00:00 3,2 3,1 0,0

tt = Temperatura
td = dewpoint
rr = precipitazioni

Stazioni seguenti

WeatherPro
AMSI
MeteoEarth